Regional Weather Roundup
Issued by NWS

Home | Current Version | Previous Version | Graphics & Text | Print | Product List | Glossary On
Versions: 1 2 3 4 5 6 7 8 9 10 11 12 13 14 15 16 17 18 19 20 21 22 23 24 25 26 27
000
ASUS45 KCYS 261110
RWRWY

WYOMING REGIONAL WEATHER ROUNDUP
NATIONAL WEATHER SERVICE CHEYENNE WY
500 AM MDT TUE JUL 26 2016

NOTE:  "FAIR" INDICATES FEW OR NO CLOUDS BELOW 12,000 FEET
WITH NO SIGNIFICANT WEATHER AND/OR OBSTRUCTIONS TO VISIBILITY.

WYZ001-261200-
YELLOWSTONE NATIONAL PARK

CITY           SKY/WX    TMP DP  RH WIND       PRES   REMARKS
LK YELLOWSTONE   N/A     41  34  76 NW3       30.35S
W YELLOWSTONE  NOT AVBL

$$
WYZ002>013-054>058-071-098>099-261200-
NORTHERN WYOMING

CITY           SKY/WX    TMP DP  RH WIND       PRES   REMARKS
JACKSON        FAIR      45  32  61 N7        30.26R
CODY           FAIR      63  43  48 CALM      30.16F
GREYBULL       FAIR      71  44  37 NW15      30.03R
WORLAND        FAIR      70  43  37 SW8       30.08R
SHERIDAN       FAIR      71  46  40 NW20G25   30.07S
BUFFALO        FAIR      67  46  47 N12G28    30.12R
GILLETTE       FAIR      64  59  83 CALM      30.06R
HULETT         TSTM      66  55  68 NE12G31   30.08R
NEWCASTLE      FAIR      73  54  49 E12       30.03F

$$
WYZ014>020-022>026-101>103-261200-
CENTRAL WYOMING

CITY           SKY/WX    TMP DP  RH WIND       PRES   REMARKS
BIG PINEY      FAIR      47  25  42 NE6       30.28S
PINEDALE       FAIR      41  32  70 W9        30.30S
DUBOIS         CLOUDY    50  21  32 NW10      30.27F HAZE
LANDER         FAIR      65  37  35 S5        30.16R
RIVERTON       FAIR      67  40  37 N12       30.15R
CASPER         FAIR      62  35  36 NW7       30.12R
DOUGLAS          N/A    N/A N/A N/A MISG      30.07R

$$
WYZ021-027>030-104>119-261200-
SOUTHERN WYOMING

CITY           SKY/WX    TMP DP  RH WIND       PRES   REMARKS
EVANSTON       FAIR      61  33  35 SE3       30.28F
KEMMERER         N/A     52  30  43 N8        30.30S
FORT BRIDGER   FAIR      63  32  31 W8        30.29F
ROCK SPRINGS   FAIR      61  30  31 SW6       30.26R
DIXON          FAIR      52  38  59 E3        30.29R
RAWLINS        FAIR      57  30  35 CALM      30.25S
SARATOGA       FAIR      54  32  43 S12       30.28S
LARAMIE        FAIR      54  38  54 S3        30.28S
CHEYENNE       FAIR      56  50  80 W6        30.18F
TORRINGTON     FAIR      63  62  97 E10       30.03F
PINE BLUFFS    FAIR      54  54 100 CALM      30.12F

$$




USA.gov is the U.S. government's official web portal to all federal, state and local government web resources and services.